Home > Weather > Hamm > Past weeks

Flag for Germany Past Weather in Hamm, North Rhine-Westphalia, Germany — Yesterday and Last 2 Weeks

Now
70 °F

Sunny.


Feels Like: 70 °F
Forecast: 56 / 69 °F
Wind: 12 mph from Northwest

Location: Dortmund / Wickede

Current Time: Aug 28, 2016 at 9:08:13 PM

Latest Report: Aug 28, 2016 at 8:20 PM


Visibility: 10 mi

Pressure: 29.98 "Hg

Humidity: 60%

Dew Point: 55 °F

Location of HammLocation

Past Weather in Hamm — Graph

°F

Hamm Temperature Yesterday

Maximum temperature yesterday: 86 °F (at 3:50 PM)
Minimum temperature yesterday: 61 °F (at 6:50 AM)
Average temperature yesterday: 75 °F

High & Low Weather Summary for the Past Weeks

 TemperatureHumidityPressure
High91 °F (Aug 25, 3:50 PM)88% (Aug 14, 5:20 AM)30.36 "Hg (Aug 14, 5:20 AM)
Low48 °F (Aug 16, 6:20 AM)16% (Aug 25, 3:50 PM)29.80 "Hg (Aug 18, 2:50 PM)
Average70 °F54%30.06 "Hg
* Reported Aug 13 7:20 PM — Aug 28 7:50 PM, Hamm, Weather by CustomWeather, © 2016

Note: Actual official high and low records may vary slightly from our data, if they occured in-between our weather recording intervals... More about our weather records

Advertising

Hamm Weather History for the Previous 24 Hours

Scroll right to see more
 ConditionsComfort  
Time TempWeatherWind HumidityBarometerVisibility
7:50 PM
Sun, Aug 28
72 °FPassing clouds.10 mph57%29.98 "HgN/A
7:20 PM73 °FPassing clouds.13 mph57%29.95 "HgN/A
6:50 PM75 °FPassing clouds.15 mph57%29.95 "HgN/A
6:20 PM77 °FSunny.15 mph54%29.95 "Hg10 mi
5:50 PM79 °FPassing clouds.14 mph51%29.92 "HgN/A
5:20 PM81 °FSunny.16 mph45%29.92 "Hg10 mi
4:50 PM82 °FPassing clouds.15 mph42%29.92 "HgN/A
4:20 PM82 °FSunny.17 mph45%29.92 "Hg10 mi
3:50 PM79 °FSunny.18 mph51%29.89 "Hg10 mi
3:20 PM82 °FPassing clouds.20 mph42%29.89 "HgN/A
2:50 PM86 °FSunny.20 mph40%29.89 "Hg10 mi
2:20 PM86 °FSunny.17 mph38%29.89 "Hg10 mi
1:50 PM90 °FSunny.16 mph29%29.86 "Hg10 mi
1:20 PM90 °FSunny.17 mph27%29.86 "Hg10 mi
12:50 PM90 °FPassing clouds.17 mph27%29.89 "HgN/A
12:20 PM88 °FSunny.13 mph33%29.89 "Hg10 mi
11:50 AM88 °FSunny.14 mph35%29.89 "Hg10 mi
11:20 AM84 °FSunny.14 mph40%29.89 "Hg10 mi
10:50 AM82 °FPassing clouds.9 mph45%29.89 "HgN/A
10:20 AM81 °FPassing clouds.8 mph48%29.92 "HgN/A
9:50 AM79 °FPassing clouds.5 mph51%29.92 "HgN/A
9:20 AM75 °FSunny.7 mph54%29.92 "Hg10 mi
8:50 AM73 °FPassing clouds.6 mph57%29.92 "HgN/A
8:20 AM70 °FSunny.9 mph69%29.92 "Hg10 mi
7:50 AM68 °FSunny.13 mph73%29.89 "Hg10 mi
7:20 AM68 °FClear.12 mph69%29.89 "Hg10 mi
6:50 AM66 °FClear.12 mph78%29.92 "Hg10 mi
6:20 AM66 °FClear.10 mph78%29.92 "Hg10 mi
5:50 AM68 °FClear.10 mph73%29.92 "Hg10 mi
5:20 AM68 °FClear.10 mph73%29.92 "Hg10 mi
9:50 PM
Sat, Aug 27
77 °FPassing clouds.8 mph47%29.95 "HgN/A
9:20 PM79 °FScattered clouds.8 mph45%29.98 "HgN/A
Weather by CustomWeather, © 2016

See weather overviewHow to use our weather pages